,,Stat5,,Stat1,,Stat2,,Stat3,,Stat4,,Wind1,,Wind1,
time,status,PA1M_AVG,status,PR1M_SUM,status,RH1M_AVG,status,SR1M_AVG,status,TA1M_AVG,status,W1dAve1m,status,W1sAve1m,
2001-09-19, 00:00:00,VALID,918.412,VALID,0,VALID,95.0817,VALID,-0.0169808,VALID,19.3119,VALID,45,VALID,0,
2001-09-19, 00:01:00,VALID,918.42,VALID,0,VALID,95.1605,VALID,-0.0169808,VALID,19.289,VALID,45,VALID,0.0261719,
2001-09-19, 00:02:00,VALID,918.417,VALID,0,VALID,95.3894,VALID,-0.0339617,VALID,19.2604,VALID,45,VALID,0.134215,
2001-09-19, 00:03:00,VALID,918.407,VALID,0,VALID,95.72,VALID,-0.0169808,VALID,19.2634,VALID,110,VALID,0.19449,
2001-09-19, 00:04:00,VALID,918.388,VALID,0,VALID,95.8714,VALID,0,VALID,19.2731,VALID,118,VALID,0.0078125,
2001-09-19, 00:05:00,VALID,918.381,VALID,0,VALID,95.9362,VALID,-0.0169808,VALID,19.2696,VALID,118,VALID,0.103125,
2001-09-19, 00:06:00,VALID,918.384,VALID,0,VALID,95.9934,VALID,0,VALID,19.2793,VALID,118,VALID,0.17832,
2001-09-19, 00:07:00,VALID,918.373,VALID,0,VALID,95.8841,VALID,0,VALID,19.2503,VALID,118,VALID,0.504317,
2001-09-19, 00:08:00,VALID,918.379,VALID,0,VALID,96.1269,VALID,0,VALID,19.2341,VALID,118,VALID,0.73609,
2001-09-19, 00:09:00,VALID,918.389,VALID,0,VALID,96.455,VALID,0,VALID,19.2503,VALID,114,VALID,0.83153,
2001-09-19, 00:10:00,VALID,918.389,VALID,0,VALID,96.586,VALID,0,VALID,19.2597,VALID,111,VALID,0.916174,
2001-09-19, 00:11:00,VALID,918.394,VALID,0,VALID,96.6661,VALID,0.0169808,VALID,19.286,VALID,91,VALID,0.814145,
2001-09-19, 00:12:00,VALID,918.388,VALID,0,VALID,96.4512,VALID,0,VALID,19.2691,VALID,84,VALID,0.488598,
2001-09-19, 00:13:00,VALID,918.376,VALID,0,VALID,95.9006,VALID,0,VALID,19.2147,VALID,83,VALID,0.39545,
2001-09-19, 00:14:00,VALID,918.381,VALID,0,VALID,95.528,VALID,-0.0169808,VALID,19.1148,VALID,75,VALID,0.635099,
2001-09-19, 00:15:00,VALID,918.392,VALID,0,VALID,95.8726,VALID,0,VALID,19.0756,VALID,73,VALID,0.772035,
2001-09-19, 00:16:00,VALID,918.404,VALID,0,VALID,96.3317,VALID,0,VALID,19.1116,VALID,79,VALID,0.705529,
2001-09-19, 00:17:00,VALID,918.425,VALID,0,VALID,96.5911,VALID,0,VALID,19.1245,VALID,88,VALID,0.543586,
2001-09-19, 00:18:00,VALID,918.432,VALID,0,VALID,96.8187,VALID,-0.0339617,VALID,19.1442,VALID,95,VALID,0.746324,
2001-09-19, 00:19:00,VALID,918.439,VALID,0,VALID,96.9522,VALID,0,VALID,19.1603,VALID,104,VALID,0.678385,
2001-09-19, 00:20:00,VALID,918.455,VALID,0,VALID,97.0196,VALID,0,VALID,19.1571,VALID,123,VALID,0.605824,
2001-09-19, 00:21:00,VALID,918.463,VALID,0,VALID,97.0044,VALID,0,VALID,19.1541,VALID,137,VALID,0.814611,
2001-09-19, 00:22:00,VALID,918.47,VALID,0,VALID,96.9395,VALID,0,VALID,19.1345,VALID,147,VALID,0.816406,
2001-09-19, 00:23:00,VALID,918.482,VALID,0,VALID,97.1099,VALID,0,VALID,19.1186,VALID,149,VALID,0.736275,
2001-09-19, 00:24:00,VALID,918.49,VALID,0,VALID,97.3998,VALID,0,VALID,19.1444,VALID,147,VALID,0.693051,
2001-09-19, 00:25:00,VALID,918.508,VALID,0,VALID,97.6071,VALID,0,VALID,19.1707,VALID,143,VALID,0.826891,
2001-09-19, 00:26:00,VALID,918.506,VALID,0,VALID,97.7126,VALID,0,VALID,19.1832,VALID,135,VALID,0.520089,
2001-09-19, 00:27:00,VALID,918.51,VALID,0,VALID,97.7012,VALID,-0.0339617,VALID,19.1672,VALID,126,VALID,0.408361,
2001-09-19, 00:28:00,VALID,918.497,VALID,0,VALID,98.0318,VALID,-0.0169808,VALID,19.1799,VALID,99,VALID,0.672794,
2001-09-19, 00:29:00,VALID,918.475,VALID,0,VALID,97.9797,VALID,-0.0169808,VALID,19.1737,VALID,94,VALID,0.586149,
2001-09-19, 00:30:00,VALID,918.48,VALID,0,VALID,98.0967,VALID,0.0169808,VALID,19.1541,VALID,96,VALID,0.615479,
2001-09-19, 00:31:00,VALID,918.479,VALID,0,VALID,98.0814,VALID,-0.0169808,VALID,19.1541,VALID,103,VALID,0.54387,
2001-09-19, 00:32:00,VALID,918.473,VALID,0,VALID,98.1234,VALID,0,VALID,19.1282,VALID,119,VALID,0.658929,
2001-09-19, 00:33:00,VALID,918.457,VALID,0,VALID,98.2264,VALID,-0.0169808,VALID,19.1354,VALID,119,VALID,0.657517,
2001-09-19, 00:34:00,VALID,918.443,VALID,0,VALID,98.3675,VALID,-0.0169808,VALID,19.1506,VALID,117,VALID,0.698529,
2001-09-19, 00:35:00,VALID,918.427,VALID,0,VALID,98.4108,VALID,0,VALID,19.1737,VALID,106,VALID,0.801943,
2001-09-19, 00:36:00,VALID,918.407,VALID,0,VALID,98.234,VALID,0,VALID,19.1446,VALID,83,VALID,0.536184,
2001-09-19, 00:37:00,VALID,918.392,VALID,0,VALID,98.0814,VALID,-0.0169808,VALID,19.0796,VALID,70,VALID,0.567229,
2001-09-19, 00:38:00,VALID,918.354,VALID,0,VALID,97.9619,VALID,0,VALID,19.0281,VALID,82,VALID,0.564732,
2001-09-19, 00:39:00,VALID,918.337,VALID,0,VALID,98.0051,VALID,0,VALID,18.9926,VALID,85,VALID,0.566512,
2001-09-19, 00:40:00,VALID,918.326,VALID,0,VALID,98.0776,VALID,0,VALID,19.002,VALID,82,VALID,0.548713,
2001-09-19, 00:41:00,VALID,918.321,VALID,0,VALID,98.0496,VALID,0,VALID,19.0023,VALID,75,VALID,0.804054,
2001-09-19, 00:42:00,VALID,918.306,VALID,0,VALID,98.0115,VALID,0,VALID,18.9961,VALID,64,VALID,0.734131,
2001-09-19, 00:43:00,VALID,918.275,VALID,0,VALID,97.8449,VALID,-0.0169808,VALID,18.967,VALID,59,VALID,0.717548,
2001-09-19, 00:44:00,VALID,918.233,VALID,0,VALID,97.6618,VALID,0,VALID,18.9248,VALID,51,VALID,0.732366,
2001-09-19, 00:45:00,VALID,918.198,VALID,0,VALID,97.616,VALID,-0.0339617,VALID,18.8867,VALID,52,VALID,0.918708,
2001-09-19, 00:46:00,VALID,918.176,VALID,0,VALID,97.6465,VALID,0,VALID,18.877,VALID,59,VALID,0.902574,
2001-09-19, 00:47:00,VALID,918.158,VALID,0,VALID,97.8207,VALID,-0.0169808,VALID,18.9059,VALID,61,VALID,1.09164,
2001-09-19, 00:48:00,VALID,918.173,VALID,0,VALID,97.8958,VALID,0,VALID,18.9382,VALID,57,VALID,1.12068,
2001-09-19, 00:49:00,VALID,918.173,VALID,0,VALID,97.8067,VALID,0,VALID,18.9412,VALID,47,VALID,0.994243,
2001-09-19, 00:50:00,VALID,918.154,VALID,0,VALID,97.761,VALID,-0.0169808,VALID,18.9479,VALID,40,VALID,0.765179,
2001-09-19, 00:51:00,VALID,918.136,VALID,0,VALID,97.5613,VALID,0,VALID,18.9282,VALID,34,VALID,0.488809,
2001-09-19, 00:52:00,VALID,918.117,VALID,0,VALID,97.4723,VALID,0,VALID,18.8992,VALID,57,VALID,0.665901,
2001-09-19, 00:53:00,VALID,918.104,VALID,0,VALID,97.3439,VALID,0,VALID,18.8738,VALID,72,VALID,0.672297,
2001-09-19, 00:54:00,VALID,918.098,VALID,0,VALID,97.5867,VALID,0,VALID,18.8902,VALID,87,VALID,0.582031,
2001-09-19, 00:55:00,VALID,918.091,VALID,0,VALID,97.7508,VALID,0,VALID,18.9382,VALID,90,VALID,0.495793,
2001-09-19, 00:56:00,VALID,918.067,VALID,0,VALID,97.7699,VALID,0,VALID,18.9603,VALID,85,VALID,0.45,
2001-09-19, 00:57:00,VALID,918.037,VALID,0,VALID,97.5461,VALID,0,VALID,18.9608,VALID,77,VALID,0.456292,
2001-09-19, 00:58:00,VALID,918.006,VALID,0,VALID,96.9064,VALID,-0.0169808,VALID,18.8544,VALID,78,VALID,0.31273,
2001-09-19, 00:59:00,VALID,917.989,VALID,0,VALID,96.5466,VALID,-0.0679233,VALID,18.7379,VALID,82,VALID,0.405617,
2001-09-19, 01:00:00,VALID,917.972,VALID,0,VALID,97.3235,VALID,0.0169808,VALID,18.7476,VALID,118,VALID,0.758224,
2001-09-19, 01:01:00,VALID,917.974,VALID,0,VALID,97.5931,VALID,0,VALID,18.8025,VALID,131,VALID,0.654605,
2001-09-19, 01:02:00,VALID,917.972,VALID,0,VALID,97.7597,VALID,0,VALID,18.8415,VALID,147,VALID,0.700223,
2001-09-19, 01:03:00,VALID,917.953,VALID,0,VALID,97.7775,VALID,0,VALID,18.8477,VALID,146,VALID,0.688556,
2001-09-19, 01:04:00,VALID,917.937,VALID,0,VALID,97.9746,VALID,0,VALID,18.8669,VALID,130,VALID,0.519301,
2001-09-19, 01:05:00,VALID,917.921,VALID,0,VALID,97.7673,VALID,-0.0169808,VALID,18.8609,VALID,114,VALID,0.493877,
2001-09-19, 01:06:00,VALID,917.909,VALID,0,VALID,97.8907,VALID,-0.0169808,VALID,18.8254,VALID,117,VALID,0.563477,
2001-09-19, 01:07:00,VALID,917.888,VALID,0,VALID,98.0433,VALID,-0.0169808,VALID,18.8254,VALID,127,VALID,0.469551,
2001-09-19, 01:08:00,VALID,917.878,VALID,0,VALID,98.103,VALID,-0.0169808,VALID,18.8221,VALID,129,VALID,0.27567,
2001-09-19, 01:09:00,VALID,917.865,VALID,0,VALID,98.2111,VALID,-0.0169808,VALID,18.8187,VALID,133,VALID,0.264147,
2001-09-19, 01:10:00,VALID,917.84,VALID,0,VALID,98.2238,VALID,-0.0509425,VALID,18.8191,VALID,133,VALID,0.0330882,
2001-09-19, 01:11:00,VALID,917.837,VALID,0,VALID,97.6198,VALID,-0.0679233,VALID,18.7098,VALID,111,VALID,0.0910051,
2001-09-19, 01:12:00,VALID,917.856,VALID,0,VALID,97.1493,VALID,0,VALID,18.4897,VALID,86,VALID,0.414679,
2001-09-19, 01:13:00,VALID,917.869,VALID,0,VALID,97.4227,VALID,-0.0169808,VALID,18.4219,VALID,76,VALID,0.486842,
2001-09-19, 01:14:00,VALID,917.877,VALID,0,VALID,97.7152,VALID,-0.0679233,VALID,18.4023,VALID,70,VALID,0.499554,
2001-09-19, 01:15:00,VALID,917.864,VALID,0,VALID,98.0331,VALID,0,VALID,18.4383,VALID,77,VALID,0.225718,
2001-09-19, 01:16:00,VALID,917.847,VALID,0,VALID,98.0954,VALID,0,VALID,18.4314,VALID,77,VALID,0,
2001-09-19, 01:17:00,VALID,917.843,VALID,0,VALID,98.07,VALID,-0.0509425,VALID,18.3926,VALID,77,VALID,0,
2001-09-19, 01:18:00,VALID,917.843,VALID,0,VALID,98.173,VALID,0,VALID,18.3998,VALID,77,VALID,0,
2001-09-19, 01:19:00,VALID,917.867,VALID,0,VALID,98.3319,VALID,-0.0169808,VALID,18.3989,VALID,77,VALID,0,
2001-09-19, 01:20:00,VALID,917.853,VALID,0,VALID,98.1602,VALID,-0.0169808,VALID,18.4028,VALID,83,VALID,0.0926339,
2001-09-19, 01:21:00,VALID,917.836,VALID,0,VALID,98.159,VALID,-0.0339617,VALID,18.341,VALID,124,VALID,0.338894,
2001-09-19, 01:22:00,VALID,917.8,VALID,0,VALID,98.2111,VALID,-0.0509425,VALID,18.3315,VALID,139,VALID,0.251149,
2001-09-19, 01:23:00,VALID,917.757,VALID,0,VALID,98.2531,VALID,-0.0679233,VALID,18.316,VALID,139,VALID,0.242821,
2001-09-19, 01:24:00,VALID,917.738,VALID,0,VALID,98.379,VALID,-0.0339617,VALID,18.3188,VALID,121,VALID,0.285773,
2001-09-19, 01:25:00,VALID,917.716,VALID,0,VALID,98.1335,VALID,-0.0169808,VALID,18.2577,VALID,100,VALID,0.209704,
2001-09-19, 01:26:00,VALID,917.68,VALID,0,VALID,97.9542,VALID,-0.0169808,VALID,18.1832,VALID,86,VALID,0.347545,
2001-09-19, 01:27:00,VALID,917.655,VALID,0,VALID,97.7788,VALID,-0.0679233,VALID,18.093,VALID,73,VALID,0.392103,
2001-09-19, 01:28:00,VALID,917.632,VALID,0,VALID,97.6376,VALID,-0.0339617,VALID,18.0123,VALID,71,VALID,0.37546,
2001-09-19, 01:29:00,VALID,917.614,VALID,0,VALID,97.8563,VALID,-0.0169808,VALID,17.9865,VALID,71,VALID,0.305321,
2001-09-19, 01:30:00,VALID,917.596,VALID,0,VALID,98.5964,VALID,-0.0509425,VALID,18.1126,VALID,88,VALID,0.327148,
2001-09-19, 01:31:00,VALID,917.58,VALID,0,VALID,98.7337,VALID,-0.0169808,VALID,18.2549,VALID,102,VALID,0.390425,
2001-09-19, 01:32:00,VALID,917.561,VALID,0,VALID,98.8011,VALID,-0.0339617,VALID,18.332,VALID,102,VALID,0.185268,
2001-09-19, 01:33:00,VALID,917.543,VALID,0,VALID,98.735,VALID,-0.0339617,VALID,18.3742,VALID,103,VALID,0,
2001-09-19, 01:34:00,VALID,917.519,VALID,0,VALID,98.6269,VALID,-0.0169808,VALID,18.3645,VALID,131,VALID,0.392693,
2001-09-19, 01:35:00,VALID,917.495,VALID,0,VALID,98.5964,VALID,-0.0339617,VALID,18.361,VALID,145,VALID,0.372255,
2001-09-19, 01:36:00,VALID,917.479,VALID,0,VALID,98.6078,VALID,0,VALID,18.3511,VALID,151,VALID,0.454975,
2001-09-19, 01:37:00,VALID,917.455,VALID,0,VALID,98.4273,VALID,-0.0339617,VALID,18.319,VALID,168,VALID,0.91509,
2001-09-19, 01:38:00,VALID,917.445,VALID,0,VALID,98.3408,VALID,-0.0169808,VALID,18.2577,VALID,160,VALID,0.83125,
2001-09-19, 01:39:00,VALID,917.426,VALID,0,VALID,98.4057,VALID,-0.0679233,VALID,18.248,VALID,155,VALID,0.568412,
2001-09-19, 01:40:00,VALID,917.419,VALID,0,VALID,98.384,VALID,-0.0169808,VALID,18.242,VALID,162,VALID,0.664982,
2001-09-19, 01:41:00,VALID,917.396,VALID,0,VALID,98.4731,VALID,-0.0509425,VALID,18.2485,VALID,168,VALID,0.667441,
2001-09-19, 01:42:00,VALID,917.376,VALID,0,VALID,98.482,VALID,0,VALID,18.2349,VALID,165,VALID,0.58667,
2001-09-19, 01:43:00,VALID,917.365,VALID,0,VALID,98.5405,VALID,0,VALID,18.251,VALID,163,VALID,0.648438,
2001-09-19, 01:44:00,VALID,917.337,VALID,0,VALID,98.604,VALID,0,VALID,18.2711,VALID,158,VALID,0.41942,
2001-09-19, 01:45:00,VALID,917.339,VALID,0,VALID,98.6396,VALID,-0.0339617,VALID,18.2805,VALID,147,VALID,0.470861,
2001-09-19, 01:46:00,VALID,917.333,VALID,0,VALID,98.7261,VALID,0,VALID,18.3094,VALID,147,VALID,0.579044,
2001-09-19, 01:47:00,VALID,917.337,VALID,0,VALID,98.7999,VALID,0,VALID,18.3518,VALID,153,VALID,0.716216,
2001-09-19, 01:48:00,VALID,917.323,VALID,0,VALID,98.8889,VALID,-0.0509425,VALID,18.3931,VALID,142,VALID,0.386102,
2001-09-19, 01:49:00,VALID,917.3,VALID,0,VALID,99.0059,VALID,-0.0169808,VALID,18.481,VALID,152,VALID,0.815378,
2001-09-19, 01:50:00,VALID,917.273,VALID,0,VALID,99.0555,VALID,0,VALID,18.5647,VALID,142,VALID,0.832812,
2001-09-19, 01:51:00,VALID,917.253,VALID,0,VALID,99.0885,VALID,-0.0169808,VALID,18.6132,VALID,142,VALID,0.70228,
2001-09-19, 01:52:00,VALID,917.227,VALID,0,VALID,99.0694,VALID,-0.0169808,VALID,18.6584,VALID,141,VALID,0.844669,
2001-09-19, 01:53:00,VALID,917.227,VALID,0,VALID,99.0504,VALID,-0.0509425,VALID,18.681,VALID,136,VALID,0.595861,
2001-09-19, 01:54:00,VALID,917.222,VALID,0,VALID,99.03,VALID,-0.0339617,VALID,18.6748,VALID,124,VALID,0.430176,
2001-09-19, 01:55:00,VALID,917.227,VALID,0,VALID,99.0109,VALID,-0.0339617,VALID,18.681,VALID,112,VALID,0.348357,
2001-09-19, 01:56:00,VALID,917.21,VALID,0,VALID,99.0033,VALID,-0.0679233,VALID,18.6646,VALID,85,VALID,0.433705,
2001-09-19, 01:57:00,VALID,917.187,VALID,0,VALID,98.9385,VALID,-0.0169808,VALID,18.6261,VALID,68,VALID,0.324747,
2001-09-19, 01:58:00,VALID,917.171,VALID,0,VALID,98.8342,VALID,-0.0679233,VALID,18.5356,VALID,71,VALID,0.430836,
2001-09-19, 01:59:00,VALID,917.155,VALID,0,VALID,98.838,VALID,-0.0339617,VALID,18.4907,VALID,77,VALID,0.460093,
2001-09-19, 02:00:00,VALID,917.141,VALID,0,VALID,98.9486,VALID,-0.0169808,VALID,18.4904,VALID,96,VALID,0.846834,
2001-09-19, 02:01:00,VALID,917.134,VALID,0,VALID,98.9753,VALID,-0.0169808,VALID,18.5031,VALID,96,VALID,1.07113,
2001-09-19, 02:02:00,VALID,917.115,VALID,0,VALID,98.9957,VALID,0,VALID,18.4932,VALID,98,VALID,1.01116,
2001-09-19, 02:03:00,VALID,917.099,VALID,0,VALID,99.0287,VALID,-0.0169808,VALID,18.5126,VALID,100,VALID,1.0209,
2001-09-19, 02:04:00,VALID,917.085,VALID,0,VALID,99.0338,VALID,0,VALID,18.5128,VALID,111,VALID,0.686351,
2001-09-19, 02:05:00,VALID,917.083,VALID,0,VALID,99.0516,VALID,0,VALID,18.5063,VALID,104,VALID,1.14738,
2001-09-19, 02:06:00,VALID,917.081,VALID,0,VALID,99.0008,VALID,0,VALID,18.4867,VALID,97,VALID,0.835205,
2001-09-19, 02:07:00,VALID,917.079,VALID,0,VALID,98.9207,VALID,-0.0169808,VALID,18.4286,VALID,123,VALID,0.422276,
2001-09-19, 02:08:00,VALID,917.064,VALID,0,VALID,98.9677,VALID,0,VALID,18.3966,VALID,124,VALID,0.628348,
2001-09-19, 02:09:00,VALID,917.054,VALID,0,VALID,99.0046,VALID,0,VALID,18.3832,VALID,127,VALID,0.539274,
2001-09-19, 02:10:00,VALID,917.043,VALID,0,VALID,99.0109,VALID,-0.0169808,VALID,18.3799,VALID,118,VALID,0.638097,
2001-09-19, 02:11:00,VALID,917.038,VALID,0,VALID,99.0822,VALID,0,VALID,18.3864,VALID,92,VALID,1.05553,
2001-09-19, 02:12:00,VALID,917.032,VALID,0,VALID,99.1216,VALID,0,VALID,18.4288,VALID,99,VALID,1.15769,
2001-09-19, 02:13:00,VALID,917.039,VALID,0,VALID,99.133,VALID,0,VALID,18.4418,VALID,97,VALID,0.862253,
2001-09-19, 02:14:00,VALID,917.038,VALID,0,VALID,99.1076,VALID,0,VALID,18.4321,VALID,91,VALID,0.635938,
2001-09-19, 02:15:00,VALID,917.032,VALID,0,VALID,99.1038,VALID,0,VALID,18.4224,VALID,99,VALID,0.692568,
2001-09-19, 02:16:00,VALID,917.044,VALID,0,VALID,99.0911,VALID,0,VALID,18.3896,VALID,92,VALID,0.81296,
2001-09-19, 02:17:00,VALID,917.056,VALID,0,VALID,99.0911,VALID,0,VALID,18.3901,VALID,77,VALID,0.942568,
2001-09-19, 02:18:00,VALID,917.064,VALID,0,VALID,99.0745,VALID,0,VALID,18.3576,VALID,62,VALID,0.812256,
2001-09-19, 02:19:00,VALID,917.06,VALID,0,VALID,99.0631,VALID,0,VALID,18.3089,VALID,54,VALID,0.784054,
2001-09-19, 02:20:00,VALID,917.061,VALID,0,VALID,99.0555,VALID,0.0169808,VALID,18.2768,VALID,68,VALID,0.665402,
2001-09-19, 02:21:00,VALID,917.063,VALID,0,VALID,99.0771,VALID,0,VALID,18.2572,VALID,96,VALID,0.611486,
2001-09-19, 02:22:00,VALID,917.069,VALID,0,VALID,99.0669,VALID,0.0169808,VALID,18.2254,VALID,110,VALID,0.837546,
2001-09-19, 02:23:00,VALID,917.086,VALID,0,VALID,99.0885,VALID,-0.0169808,VALID,18.1961,VALID,110,VALID,0.75549,
2001-09-19, 02:24:00,VALID,917.11,VALID,0,VALID,99.1165,VALID,-0.0169808,VALID,18.1931,VALID,104,VALID,0.69264,
2001-09-19, 02:25:00,VALID,917.117,VALID,0,VALID,99.1496,VALID,0,VALID,18.1834,VALID,115,VALID,0.573808,
2001-09-19, 02:26:00,VALID,917.127,VALID,0,VALID,99.1877,VALID,-0.0169808,VALID,18.1968,VALID,116,VALID,0.239509,
2001-09-19, 02:27:00,VALID,917.125,VALID,0,VALID,99.1864,VALID,0,VALID,18.1866,VALID,116,VALID,0,
2001-09-19, 02:28:00,VALID,917.118,VALID,0,VALID,99.2157,VALID,-0.0169808,VALID,18.1867,VALID,118,VALID,0,
2001-09-19, 02:29:00,VALID,917.13,VALID,0,VALID,99.2119,VALID,0,VALID,18.1894,VALID,125,VALID,0.237965,
2001-09-19, 02:30:00,VALID,917.116,VALID,0,VALID,99.2398,VALID,0,VALID,18.2035,VALID,121,VALID,0.468018,
2001-09-19, 02:31:00,VALID,917.099,VALID,0,VALID,99.2538,VALID,-0.0339617,VALID,18.2093,VALID,138,VALID,0.429888,
2001-09-19, 02:32:00,VALID,917.098,VALID,0,VALID,99.2932,VALID,-0.0339617,VALID,18.2415,VALID,138,VALID,0.419643,
2001-09-19, 02:33:00,VALID,917.107,VALID,0,VALID,99.2843,VALID,0,VALID,18.2512,VALID,126,VALID,0.105785,
2001-09-19, 02:34:00,VALID,917.104,VALID,0,VALID,99.1801,VALID,-0.0169808,VALID,18.1516,VALID,43,VALID,0.242417,
2001-09-19, 02:35:00,VALID,917.103,VALID,0,VALID,99.0974,VALID,0,VALID,18.0411,VALID,43,VALID,0.366554,
2001-09-19, 02:36:00,VALID,917.117,VALID,0,VALID,99.0745,VALID,0,VALID,17.9576,VALID,50,VALID,0.311472,
2001-09-19, 02:37:00,VALID,917.13,VALID,0,VALID,99.2055,VALID,0,VALID,17.9572,VALID,95,VALID,0.57977,
2001-09-19, 02:38:00,VALID,917.121,VALID,0,VALID,99.3428,VALID,0,VALID,18.0575,VALID,110,VALID,0.716518,
2001-09-19, 02:39:00,VALID,917.126,VALID,0,VALID,99.3734,VALID,-0.0169808,VALID,18.1225,VALID,112,VALID,0.728463,
2001-09-19, 02:40:00,VALID,917.124,VALID,0,VALID,99.4026,VALID,-0.0169808,VALID,18.1968,VALID,96,VALID,0.717371,
2001-09-19, 02:41:00,VALID,917.121,VALID,0,VALID,99.3861,VALID,0,VALID,18.2224,VALID,80,VALID,0.529772,
2001-09-19, 02:42:00,VALID,917.118,VALID,0,VALID,99.3492,VALID,0,VALID,18.1871,VALID,59,VALID,0.368896,
2001-09-19, 02:43:00,VALID,917.106,VALID,0,VALID,99.2996,VALID,0,VALID,18.1255,VALID,58,VALID,0.262821,
2001-09-19, 02:44:00,VALID,917.096,VALID,0,VALID,99.2131,VALID,0,VALID,17.9991,VALID,58,VALID,0.0790179,
2001-09-19, 02:45:00,VALID,917.119,VALID,0,VALID,99.2144,VALID,0,VALID,17.9608,VALID,58,VALID,0,
2001-09-19, 02:46:00,VALID,917.155,VALID,0,VALID,99.2831,VALID,0,VALID,17.9703,VALID,62,VALID,0,
2001-09-19, 02:47:00,VALID,917.157,VALID,0,VALID,99.3543,VALID,-0.0339617,VALID,18.0127,VALID,75,VALID,0,
2001-09-19, 02:48:00,VALID,917.177,VALID,0,VALID,99.3454,VALID,-0.0169808,VALID,18.0351,VALID,78,VALID,0,
2001-09-19, 02:49:00,VALID,917.166,VALID,0,VALID,99.2932,VALID,-0.0509425,VALID,17.9738,VALID,78,VALID,0,
2001-09-19, 02:50:00,VALID,917.155,VALID,0,VALID,99.2131,VALID,0,VALID,17.8478,VALID,78,VALID,0,
2001-09-19, 02:51:00,VALID,917.156,VALID,0,VALID,99.1343,VALID,-0.0169808,VALID,17.7385,VALID,44,VALID,0,
2001-09-19, 02:52:00,VALID,917.167,VALID,0,VALID,99.1254,VALID,-0.0509425,VALID,17.6769,VALID,30,VALID,0,
2001-09-19, 02:53:00,VALID,917.177,VALID,0,VALID,99.2233,VALID,-0.0169808,VALID,17.7127,VALID,11,VALID,0,
2001-09-19, 02:54:00,VALID,917.179,VALID,0,VALID,99.278,VALID,-0.0169808,VALID,17.7512,VALID,5,VALID,0.405029,
2001-09-19, 02:55:00,VALID,917.178,VALID,0,VALID,99.2754,VALID,-0.0169808,VALID,17.7161,VALID,2,VALID,0.696314,
2001-09-19, 02:56:00,VALID,917.177,VALID,0,VALID,99.3466,VALID,-0.0339617,VALID,17.7932,VALID,3,VALID,0.478795,
2001-09-19, 02:57:00,VALID,917.179,VALID,0,VALID,99.4064,VALID,0,VALID,17.9191,VALID,3,VALID,0.107052,
2001-09-19, 02:58:00,VALID,917.172,VALID,0,VALID,99.3848,VALID,-0.0509425,VALID,17.9228,VALID,4,VALID,0,
2001-09-19, 02:59:00,VALID,917.158,VALID,0,VALID,99.3568,VALID,-0.0509425,VALID,17.8831,VALID,14,VALID,0.570101,
2001-09-19, 03:00:00,VALID,917.157,VALID,0,VALID,99.3873,VALID,-0.0169808,VALID,17.9225,VALID,15,VALID,0.638363,
2001-09-19, 03:01:00,VALID,917.144,VALID,0,VALID,99.3962,VALID,-0.0169808,VALID,17.9664,VALID,9,VALID,0.663651,
2001-09-19, 03:02:00,VALID,917.134,VALID,0,VALID,99.409,VALID,0.0509425,VALID,17.9987,VALID,1,VALID,0.5,
2001-09-19, 03:03:00,VALID,917.113,VALID,0,VALID,99.4128,VALID,0.0509425,VALID,18.0213,VALID,7,VALID,0.510769,
2001-09-19, 03:04:00,VALID,917.102,VALID,0,VALID,99.4268,VALID,0.0679233,VALID,18.0566,VALID,7,VALID,0.549862,
2001-09-19, 03:05:00,VALID,917.094,VALID,0,VALID,99.4242,VALID,0.0169808,VALID,18.1025,VALID,9,VALID,0.433277,
2001-09-19, 03:06:00,VALID,917.091,VALID,0,VALID,99.4153,VALID,0.0509425,VALID,18.099,VALID,30,VALID,0.422852,
2001-09-19, 03:07:00,VALID,917.084,VALID,0,VALID,99.4166,VALID,0,VALID,18.1057,VALID,32,VALID,0.532652,
2001-09-19, 03:08:00,VALID,917.071,VALID,0,VALID,99.4204,VALID,0.0339617,VALID,18.1378,VALID,46,VALID,0.709821,
2001-09-19, 03:09:00,VALID,917.065,VALID,0,VALID,99.4318,VALID,0.0169808,VALID,18.1733,VALID,50,VALID,0.742399,
2001-09-19, 03:10:00,VALID,917.059,VALID,0,VALID,99.4166,VALID,0,VALID,18.1957,VALID,59,VALID,0.609598,
2001-09-19, 03:11:00,VALID,917.059,VALID,0,VALID,99.4229,VALID,0.0169808,VALID,18.2056,VALID,59,VALID,0.548353,
2001-09-19, 03:12:00,VALID,917.066,VALID,0,VALID,99.4217,VALID,0.0679233,VALID,18.2051,VALID,58,VALID,0.423109,
2001-09-19, 03:13:00,VALID,917.09,VALID,0,VALID,99.4179,VALID,0.0679233,VALID,18.2088,VALID,46,VALID,0.246711,
2001-09-19, 03:14:00,VALID,917.103,VALID,0,VALID,99.3657,VALID,0.0509425,VALID,18.1179,VALID,27,VALID,0.204688,
2001-09-19, 03:15:00,VALID,917.106,VALID,0,VALID,99.3136,VALID,0.0509425,VALID,18.0181,VALID,27,VALID,0.228041,
2001-09-19, 03:16:00,VALID,917.083,VALID,0,VALID,99.2958,VALID,0,VALID,17.9606,VALID,21,VALID,0.514246,
2001-09-19, 03:17:00,VALID,917.058,VALID,0,VALID,99.3581,VALID,-0.0339617,VALID,17.9931,VALID,9,VALID,0.904772,
2001-09-19, 03:18:00,VALID,917.021,VALID,0,VALID,99.4204,VALID,-0.0679233,VALID,18.0999,VALID,356,VALID,0.652588,
2001-09-19, 03:19:00,VALID,917.004,VALID,0,VALID,99.4382,VALID,-0.0169808,VALID,18.1412,VALID,348,VALID,0.186899,
2001-09-19, 03:20:00,VALID,917,VALID,0,VALID,99.4433,VALID,-0.0169808,VALID,18.1809,VALID,346,VALID,0.0426339,
2001-09-19, 03:21:00,VALID,917.002,VALID,0,VALID,99.4179,VALID,-0.0849042,VALID,18.158,VALID,4,VALID,0,
2001-09-19, 03:22:00,VALID,916.992,VALID,0,VALID,99.3428,VALID,-0.0169808,VALID,18.1029,VALID,43,VALID,0,
2001-09-19, 03:23:00,VALID,916.984,VALID,0,VALID,99.353,VALID,-0.0679233,VALID,18.0579,VALID,43,VALID,0,
2001-09-19, 03:24:00,VALID,916.96,VALID,0,VALID,99.4077,VALID,-0.0339617,VALID,18.0967,VALID,43,VALID,0,
2001-09-19, 03:25:00,VALID,916.958,VALID,0,VALID,99.3975,VALID,-0.0849042,VALID,18.1232,VALID,43,VALID,0.169408,
2001-09-19, 03:26:00,VALID,916.941,VALID,0,VALID,99.4077,VALID,-0.0849042,VALID,18.1255,VALID,43,VALID,0.485714,
2001-09-19, 03:27:00,VALID,916.921,VALID,0,VALID,99.3632,VALID,-0.0509425,VALID,18.0644,VALID,43,VALID,0.501056,
2001-09-19, 03:28:00,VALID,916.903,VALID,0,VALID,99.3479,VALID,-0.0339617,VALID,18.0291,VALID,43,VALID,0.423943,
2001-09-19, 03:29:00,VALID,916.89,VALID,0,VALID,99.3072,VALID,-0.0509425,VALID,17.9611,VALID,43,VALID,0.282517,
2001-09-19, 03:30:00,VALID,916.891,VALID,0,VALID,99.2831,VALID,-0.0339617,VALID,17.8965,VALID,43,VALID,0.202393,
2001-09-19, 03:31:00,VALID,916.889,VALID,0,VALID,99.2932,VALID,-0.0169808,VALID,17.8838,VALID,43,VALID,0,
2001-09-19, 03:32:00,VALID,916.878,VALID,0,VALID,99.2602,VALID,-0.0679233,VALID,17.8349,VALID,43,VALID,0,
2001-09-19, 03:33:00,VALID,916.885,VALID,0,VALID,99.1839,VALID,-0.0169808,VALID,17.7383,VALID,43,VALID,0,
2001-09-19, 03:34:00,VALID,916.871,VALID,0,VALID,99.1572,VALID,-0.0339617,VALID,17.6778,VALID,35,VALID,0.221737,
2001-09-19, 03:35:00,VALID,916.865,VALID,0,VALID,99.1241,VALID,-0.0679233,VALID,17.6124,VALID,26,VALID,0.530405,
2001-09-19, 03:36:00,VALID,916.882,VALID,0,VALID,99.1674,VALID,-0.0169808,VALID,17.5898,VALID,21,VALID,0.723067,